GFSSW_prec_cthk_003.txt.gz
RH
9 8 8 7 8 11 12 10 9 9 9 9 8 9 8 6 5 5 6 14 19 18 24 30 32 34 37 48 53 52 57 52 53 54 52 51 53 55 47 32 32 36 33 35 41
10 9 8 8 7 8 12 12 9 8 9 9 9 9 8 6 4 4 4 7 15 14 21 29 31 31 34 40 43 47 52 56 49 49 48 43 50 47 40 35 34 35 34 37 40
12 10 9 8 7 7 9 12 10 9 8 9 9 8 8 7 4 3 4 6 12 16 23 26 28 31 34 38 39 43 46 43 49 47 41 45 54 46 42 39 30 29 31 36 39
14 11 10 9 8 7 7 10 11 10 8 9 9 8 8 7 5 6 4 4 8 15 21 27 31 30 35 37 38 40 42 38 43 42 43 46 49 36 36 33 30 26 30 36 40
14 14 11 10 9 7 7 8 9 10 9 8 9 8 8 7 4 5 4 3 4 10 17 27 28 33 38 38 33 33 39 38 41 41 43 35 27 31 35 32 31 31 32 37 40
13 13 14 12 10 9 7 7 8 9 9 8 8 8 9 7 4 4 4 3 4 7 17 26 27 32 37 35 30 39 44 41 39 43 33 31 35 33 38 34 31 30 32 34 37
14 14 13 14 13 10 8 7 8 8 8 8 8 9 9 5 5 5 6 4 4 6 13 24 28 31 32 30 31 46 44 39 41 44 38 39 42 34 33 33 32 30 30 31 33
13 14 14 13 14 13 10 9 8 8 8 7 9 11 10 5 4 4 6 4 6 7 14 21 25 28 31 28 35 44 45 39 41 42 39 41 47 36 32 31 31 30 30 31 30
12 12 12 12 12 14 13 11 9 8 8 10 11 12 10 6 5 5 6 5 7 12 14 17 22 25 29 30 34 38 42 40 41 40 43 45 52 49 44 42 39 30 30 30 31
14 13 12 10 10 12 14 12 12 11 13 14 13 13 8 10 11 9 9 5 8 13 15 16 18 22 25 28 30 38 41 38 34 39 42 47 48 49 48 42 37 33 29 28 29
14 13 13 12 10 11 13 13 14 15 14 13 12 10 9 13 14 10 10 6 9 11 13 16 17 18 19 24 25 36 39 36 34 37 41 44 46 47 48 36 31 26 25 28 30
13 13 13 13 12 11 12 14 16 15 13 12 9 9 8 14 16 12 11 9 8 10 12 15 16 16 20 24 27 32 31 37 38 39 44 47 49 43 47 38 35 32 29 27 29
11 12 13 13 13 12 11 14 17 16 17 11 9 8 5 13 14 13 12 11 8 10 11 13 14 17 17 22 27 29 27 31 34 41 46 50 56 50 48 43 44 45 41 37 32
10 11 11 13 12 12 11 14 17 18 20 12 15 11 7 10 13 15 13 11 9 9 11 12 14 17 18 20 23 23 24 29 33 41 46 42 56 52 48 46 47 45 45 41 30
9 9 10 11 12 12 11 13 17 19 31 10 16 16 9 8 11 14 13 11 9 8 10 11 13 15 18 17 21 24 28 29 30 31 38 43 49 46 50 48 40 40 45 46 41
9 9 9 9 11 11 12 13 17 24 27 14 15 19 13 10 13 16 14 12 8 8 7 10 12 14 15 14 23 24 27 28 29 31 40 38 43 42 42 41 34 36 42 45 47
10 9 9 9 10 11 12 13 22 27 15 17 21 23 17 13 16 18 17 14 10 11 10 9 12 12 12 17 22 23 27 29 31 38 43 32 40 36 31 31 29 31 36 40 41
11 10 10 10 9 10 11 15 27 18 19 16 24 26 22 18 21 18 17 18 13 9 10 12 11 12 12 16 18 22 26 28 27 33 31 31 42 28 25 29 30 33 35 38 38
12 12 11 11 10 10 12 19 20 20 21 21 20 26 28 28 29 30 23 17 16 10 11 13 12 9 12 15 16 22 25 22 25 28 29 28 26 22 25 26 30 31 33 34 34
13 13 12 16 14 11 14 16 15 18 23 22 23 25 29 33 29 34 32 25 17 17 9 11 12 9 9 15 16 21 21 24 26 26 27 27 25 26 25 28 31 31 32 32 32
16 14 14 16 19 15 15 15 13 15 22 24 21 26 26 31 32 33 31 27 27 23 16 11 13 10 11 13 14 20 20 21 22 24 25 23 23 23 25 26 28 30 29 31 32
20 18 17 20 23 23 17 15 13 15 19 22 19 20 25 29 31 32 30 28 28 28 25 16 14 14 12 12 15 18 17 18 19 21 25 24 22 22 26 28 31 31 31 31 30
29 23 16 22 30 28 25 22 20 22 27 25 23 18 26 31 32 32 36 30 31 30 25 19 16 16 16 15 17 17 19 19 22 23 28 26 26 22 25 29 29 31 30 29 29
32 32 32 27 28 30 30 26 26 26 31 31 29 25 26 31 35 37 37 33 32 25 23 21 17 12 13 14 17 18 20 23 23 26 27 27 24 24 24 27 26 25 27 27 27
38 41 37 41 31 31 29 30 29 29 28 31 32 29 28 34 35 42 44 37 42 31 28 24 22 18 9 14 18 19 20 23 23 22 23 24 26 24 26 25 24 25 27 24 23
45 50 47 40 39 32 33 33 35 32 32 33 36 32 31 35 36 45 45 43 56 44 33 24 22 22 14 16 19 20 21 24 24 24 24 25 25 24 24 26 27 28 26 26 26
42 44 50 44 34 36 34 38 40 38 32 40 42 43 34 35 40 43 49 54 52 52 41 29 23 24 21 18 20 24 25 25 24 24 24 26 23 25 28 28 27 27 27 27 29

GFSSW_prec_cthk_006.txt.gz
RH
11 10 9 8 8 8 8 10 11 9 9 9 10 9 8 8 7 6 6 16 19 17 26 29 36 36 44 47 56 56 56 53 53 51 49 52 53 46 41 37 35 35 34 38 42
14 12 10 9 8 8 7 8 10 10 9 8 9 10 9 8 7 5 5 8 15 16 23 27 33 32 38 40 46 51 52 48 46 45 50 52 52 43 44 37 34 35 32 35 38
14 14 12 9 8 8 7 7 9 10 9 8 8 9 9 8 7 4 4 5 12 15 21 26 29 29 32 34 40 44 44 40 38 40 43 47 54 44 42 38 31 32 30 32 37
12 13 13 13 9 8 8 7 7 9 9 9 8 8 8 8 7 6 6 6 9 15 19 26 29 27 30 35 38 43 41 36 36 39 41 39 44 44 34 33 30 29 27 31 33
12 11 12 13 13 10 8 8 7 7 8 8 8 7 8 8 5 5 5 5 7 13 17 25 28 27 29 31 34 36 36 34 33 33 39 40 36 40 35 33 28 26 28 31 32
14 13 12 12 12 13 11 9 7 6 7 8 8 7 7 8 6 5 5 5 5 10 18 23 25 29 29 29 31 32 35 39 37 34 37 39 37 34 35 33 29 26 27 29 31
13 14 14 13 12 11 13 11 8 7 6 7 7 8 7 5 7 5 5 6 5 7 17 22 29 28 29 28 30 34 40 38 37 36 40 43 42 35 34 33 32 28 29 30 33
12 12 12 12 12 11 11 12 11 9 8 7 8 8 8 6 6 5 6 6 5 6 12 21 26 27 28 28 31 39 39 42 40 37 42 48 47 43 41 38 34 31 30 31 31
13 13 12 12 11 10 10 10 11 11 10 10 10 10 8 8 7 6 5 7 5 7 12 18 20 24 27 28 33 38 37 44 43 39 45 52 52 51 47 43 40 30 29 29 30
12 13 13 12 11 11 10 9 11 11 12 14 14 14 9 8 10 8 7 9 8 7 13 16 18 23 26 29 36 34 40 42 44 43 45 48 51 51 47 40 40 30 27 28 27
10 11 12 12 11 11 11 8 11 13 13 12 11 13 9 7 10 8 9 9 9 7 10 14 17 20 24 25 26 30 38 38 44 44 45 49 52 54 50 44 39 31 25 24 23
9 10 11 12 12 12 11 11 12 14 11 11 11 10 9 8 10 11 11 11 10 10 8 13 15 20 26 27 26 28 35 40 45 44 50 53 54 53 53 46 41 37 28 25 24
10 9 9 11 11 12 12 11 12 13 14 8 9 11 11 10 8 11 13 11 11 12 9 12 15 21 25 27 26 27 26 34 40 47 49 53 55 55 55 51 46 44 41 38 30
10 9 9 9 10 11 12 12 12 14 19 12 10 14 14 11 9 9 14 12 12 14 13 13 16 21 22 26 27 27 23 31 37 41 46 46 50 54 52 51 45 40 41 40 38
10 10 9 9 10 10 11 12 12 17 25 11 11 14 16 13 8 9 14 14 14 14 14 14 16 19 22 21 23 24 26 31 37 40 42 47 47 37 49 53 44 38 40 38 40
11 11 10 9 9 9 11 13 14 21 25 13 13 14 16 16 10 13 16 16 13 14 15 14 15 18 18 21 23 22 30 34 35 39 46 37 39 34 45 39 39 39 39 40 38
14 12 12 10 10 9 10 13 20 25 15 13 15 15 16 18 12 14 19 20 17 16 16 14 13 18 19 21 23 22 29 33 33 45 46 36 42 28 29 33 30 34 35 39 43
16 14 13 12 11 11 10 14 26 19 16 14 16 16 18 20 15 13 22 25 19 14 13 14 14 15 18 20 24 21 27 31 33 38 39 40 41 27 23 29 33 34 35 37 37
20 18 15 14 13 13 12 17 19 21 18 17 17 16 20 22 22 20 24 25 23 15 11 13 12 12 17 19 21 21 25 27 33 33 33 36 28 22 23 25 29 32 34 34 35
24 21 18 19 20 17 16 15 15 16 18 16 18 20 19 26 27 24 25 24 24 24 18 12 11 9 12 17 20 22 21 27 32 33 34 32 27 26 22 22 22 29 30 31 33
26 25 22 22 23 21 19 16 13 13 15 15 18 22 22 26 26 27 23 23 22 23 26 23 16 11 10 11 15 20 21 25 28 32 32 30 29 23 21 21 22 25 26 28 30
30 29 28 26 26 26 23 18 15 14 14 15 17 20 21 22 25 26 24 22 25 28 29 27 24 17 13 11 11 14 17 20 25 28 33 29 24 19 18 19 23 26 24 28 29
36 34 29 31 33 30 28 26 22 19 17 17 17 17 21 22 25 27 26 22 28 34 36 34 29 23 16 16 14 14 16 19 24 27 32 29 24 17 19 24 27 27 26 29 30
41 39 39 41 35 33 33 29 28 26 26 26 24 25 26 27 23 25 30 30 33 40 43 39 33 25 18 12 14 15 16 21 20 28 27 25 18 16 20 23 26 26 26 27 27
44 45 52 52 50 47 39 34 33 33 30 28 27 28 30 32 28 24 27 30 35 45 47 34 29 24 16 14 14 15 14 17 18 19 21 16 20 20 21 23 24 23 25 26 25
54 56 54 51 49 50 43 36 38 37 34 31 32 31 34 33 31 25 28 33 35 45 49 41 27 22 19 17 15 17 17 17 17 21 20 21 23 21 21 26 24 24 26 24 22
52 55 57 46 47 46 41 42 39 42 35 33 36 36 41 36 39 33 30 36 43 43 52 50 37 28 23 21 18 20 17 18 20 22 21 25 22 23 25 26 24 24 25 23 22

GFSSW_prec_cthk_009.txt.gz
RH
14 13 12 9 8 7 7 7 7 9 11 8 8 8 9 9 8 7 7 13 17 19 27 31 36 40 43 47 48 51 47 46 46 49 47 44 40 41 37 35 38 39 40 42 45
12 13 13 12 9 8 7 7 6 7 10 10 8 8 8 9 7 6 6 7 14 17 23 30 35 38 40 39 43 47 45 41 40 43 44 46 43 40 37 36 35 36 39 40 42
11 11 12 12 12 10 8 8 6 6 7 10 9 8 7 8 7 6 6 5 10 15 21 26 30 34 36 38 40 45 43 38 37 37 42 45 49 39 36 34 32 34 34 38 39
12 12 11 11 12 12 11 9 8 6 5 7 9 8 7 7 8 7 7 6 7 14 18 23 28 31 33 35 36 39 36 36 37 34 36 37 40 38 33 31 32 32 35 36 38
12 12 12 12 11 11 12 11 9 8 7 5 7 8 7 6 6 7 6 6 6 11 16 22 27 29 31 32 34 35 31 33 31 32 32 33 37 39 32 31 32 32 34 32 34
11 11 11 12 13 12 11 11 11 9 7 7 6 6 7 6 6 7 6 6 7 8 15 21 26 29 29 30 32 32 31 33 27 32 32 34 36 36 33 34 31 30 31 31 34
12 12 11 11 11 11 11 10 10 11 10 8 7 6 7 5 5 6 6 6 6 7 11 19 25 27 27 29 30 33 33 37 34 34 34 36 41 37 35 33 30 27 29 30 32
10 12 12 12 11 11 10 10 9 9 11 10 9 9 8 5 5 8 7 6 7 6 10 16 24 26 27 28 30 34 34 35 36 36 38 36 39 44 45 38 30 27 27 28 29
9 10 11 11 11 11 11 10 9 8 9 10 11 12 11 7 8 8 7 6 8 7 10 15 18 24 26 28 29 32 32 38 35 40 41 40 40 44 48 44 41 30 24 26 28
10 9 9 10 11 11 10 10 9 8 10 13 14 15 11 10 10 9 8 7 8 8 8 15 16 20 24 26 24 29 34 36 34 41 45 47 45 49 48 45 40 36 29 26 25
10 10 9 9 10 11 11 11 11 11 10 11 11 10 10 11 9 10 10 9 9 9 9 11 14 16 21 25 24 27 33 36 42 43 44 47 48 51 52 51 48 34 30 27 23
10 10 10 9 9 10 11 11 12 11 10 9 9 9 9 10 10 9 11 11 10 9 8 9 11 18 23 25 25 27 34 36 42 45 45 49 48 49 52 52 48 45 37 28 26
11 10 10 10 9 10 10 11 13 11 11 9 9 9 11 11 10 8 10 11 11 10 9 8 9 18 22 24 25 26 27 35 37 46 48 49 46 49 49 52 51 47 41 39 32
13 12 11 10 9 9 10 11 11 12 15 11 10 12 14 14 11 9 10 11 12 12 10 9 9 16 20 23 24 22 22 28 38 43 45 47 40 44 48 50 47 43 41 38 37
16 14 12 11 11 9 9 10 11 15 18 11 12 13 13 13 11 9 9 13 14 12 12 10 8 15 18 20 25 24 25 27 33 42 42 43 42 35 43 45 43 42 38 37 33
19 17 16 13 12 11 10 11 13 19 19 13 14 14 14 14 13 11 10 14 16 14 12 12 9 12 17 23 26 29 29 29 34 42 41 32 35 28 35 31 33 41 40 37 36
23 20 18 16 14 13 11 12 17 20 15 14 15 15 14 13 15 13 11 16 18 20 18 14 12 12 14 25 29 29 32 35 35 41 35 31 36 25 25 27 29 35 40 40 39
25 23 21 19 16 15 13 14 21 16 14 15 17 17 15 15 17 15 14 16 19 19 18 18 16 12 15 20 26 28 28 32 38 35 32 36 32 23 25 24 26 31 37 41 39
29 27 25 22 20 18 16 15 15 17 18 17 16 15 15 16 16 18 16 14 18 20 20 18 15 13 17 21 23 28 29 27 30 33 30 29 27 23 23 23 25 28 32 33 36
34 31 28 29 29 25 20 16 15 17 18 17 17 18 17 19 17 18 18 18 20 23 22 17 14 11 16 21 25 24 26 29 29 35 36 30 27 20 22 21 23 26 27 29 31
37 35 32 33 33 31 25 20 17 16 16 16 18 19 19 18 19 20 20 18 19 23 25 23 17 10 14 18 21 25 25 29 27 26 29 30 24 22 21 19 19 20 21 25 28
41 38 37 38 39 34 31 27 22 18 16 16 17 17 17 18 18 19 20 23 22 21 24 27 26 23 14 13 16 21 24 24 27 27 24 25 25 20 21 20 18 17 16 24 26
48 43 39 45 42 40 37 34 29 25 21 19 17 17 16 16 19 18 18 24 28 26 25 27 28 29 21 18 15 16 18 23 25 27 28 24 22 21 22 22 19 19 20 26 27
47 43 41 51 49 49 47 40 34 32 27 23 23 21 21 20 22 22 21 24 31 29 31 34 34 33 27 19 15 15 14 17 21 24 24 23 20 19 21 21 20 19 23 27 29
56 52 58 55 59 63 57 48 41 35 33 32 29 26 25 24 24 24 24 24 33 35 44 41 36 35 29 23 20 15 13 13 15 16 20 17 17 15 19 21 20 19 25 26 31
78 80 68 62 55 53 54 55 46 46 40 34 34 32 29 29 28 29 27 24 28 39 42 44 42 39 32 29 30 19 13 13 14 13 17 15 17 14 17 18 20 22 26 25 26
83 74 74 66 62 58 53 50 49 52 41 41 39 36 33 32 32 35 33 32 31 39 48 51 50 51 41 30 27 26 18 14 14 14 14 15 14 14 14 18 21 23 26 26 25

GFSSW_prec_cthk_015.txt.gz
RH
10 10 10 10 11 11 8 7 6 6 6 5 5 8 7 7 7 7 9 14 20 21 25 32 39 42 48 43 38 54 57 44 41 51 46 28 37 35 44 37 44 58 56 55 52
11 11 11 10 10 10 10 9 7 7 6 5 5 6 8 6 6 6 7 8 14 17 22 33 36 41 48 42 42 49 62 50 39 44 50 34 36 33 36 36 41 46 54 52 52
11 10 10 11 10 10 10 9 9 9 7 6 6 5 6 7 6 9 7 6 8 14 21 30 34 43 44 40 34 42 58 51 39 40 54 38 41 38 42 37 40 43 45 46 48
11 11 10 10 10 10 11 10 10 9 9 7 6 6 5 6 11 12 8 6 6 11 20 27 32 39 43 37 31 31 39 38 38 42 47 46 48 39 37 45 37 42 41 41 45
9 10 11 10 10 10 10 10 10 10 9 9 8 6 6 7 7 8 7 6 6 9 18 25 31 36 39 30 30 33 36 32 33 34 39 49 48 46 38 30 32 37 37 37 40
9 9 9 10 10 10 10 10 10 9 9 8 9 9 7 8 7 8 6 6 8 9 14 21 30 33 35 30 30 31 31 32 33 33 33 47 46 41 37 29 31 34 34 36 40
9 9 8 9 9 10 10 10 10 10 9 8 7 8 10 8 7 7 8 9 10 10 13 16 27 28 29 26 26 30 30 35 27 31 33 39 35 36 36 32 30 31 34 35 38
10 9 9 8 8 9 9 10 10 10 9 8 7 7 10 10 10 7 7 7 8 9 10 15 22 25 27 30 29 29 31 34 32 30 33 33 38 29 35 35 34 30 33 33 35
11 10 10 9 9 8 8 8 9 10 10 9 9 10 11 10 8 7 7 8 10 8 10 13 20 24 26 24 27 31 30 31 40 28 36 34 70 36 34 34 34 30 31 31 33
14 12 11 10 9 9 8 8 9 9 11 11 13 15 11 11 11 11 11 10 10 10 10 10 15 22 23 26 26 32 31 29 40 35 40 27 57 39 38 40 35 32 28 28 30
17 15 13 11 9 9 9 10 13 18 17 13 16 11 13 11 13 10 12 10 10 11 8 7 10 15 21 23 25 28 29 29 33 36 32 40 46 39 42 42 42 37 29 28 26
20 19 16 13 11 10 10 12 13 12 10 9 9 10 11 13 13 12 13 9 10 11 9 8 8 11 21 24 25 27 28 27 33 34 38 39 43 44 43 42 43 40 34 29 29
25 22 20 17 14 14 13 15 12 12 11 8 7 7 8 8 8 10 12 13 9 10 10 8 6 8 15 23 25 27 26 26 29 36 46 39 45 41 44 43 41 42 44 35 31
29 26 25 22 20 15 17 16 13 13 13 10 10 8 8 8 8 8 9 12 12 11 11 10 8 7 10 15 21 25 26 27 27 39 46 35 36 42 36 43 40 40 40 41 39
34 31 28 25 22 21 20 17 15 16 16 14 13 13 11 9 13 10 9 11 12 13 11 11 9 9 7 9 16 20 25 27 27 30 45 33 33 35 40 37 40 37 39 40 40
37 34 31 29 29 24 21 19 18 20 19 15 14 13 14 11 12 13 10 10 12 14 13 11 12 9 8 9 14 17 25 27 25 27 34 37 36 35 43 37 40 39 38 39 41
37 36 34 32 30 29 23 22 21 21 17 17 16 15 14 13 12 12 10 11 11 14 15 13 12 13 9 10 10 15 22 27 28 27 28 31 31 45 34 33 35 35 40 40 38
36 35 36 38 36 31 25 23 21 17 18 18 17 18 16 14 14 15 12 11 11 14 15 16 15 13 11 9 10 11 15 22 30 27 26 26 30 28 36 33 33 33 31 37 41
34 37 39 39 42 35 32 23 19 20 20 19 20 18 19 16 16 16 16 14 12 13 14 17 18 16 13 11 9 10 13 18 23 24 26 24 25 30 33 34 33 32 30 33 41
34 35 38 41 46 44 37 26 22 22 20 20 20 20 20 20 19 17 19 18 15 13 14 16 22 20 15 14 11 9 11 18 24 28 29 23 24 28 29 32 32 32 30 32 37
34 31 37 40 44 50 40 31 31 27 24 21 22 22 20 21 22 22 18 19 19 18 15 17 19 23 24 15 12 11 9 17 21 24 25 27 26 22 28 34 29 30 27 30 35
34 34 34 31 40 47 44 44 40 32 30 25 23 25 26 22 21 21 22 22 22 21 19 19 21 25 22 22 19 16 13 15 22 27 25 24 22 24 24 28 28 28 28 30 31
35 33 31 34 32 32 39 45 45 42 38 31 23 24 26 25 26 25 24 23 25 23 23 25 23 28 32 22 19 15 12 13 15 23 28 27 24 24 28 26 28 29 26 26 34
43 37 38 44 41 37 38 44 51 50 46 41 33 26 25 26 25 27 27 26 27 24 25 28 32 25 28 26 20 19 17 15 15 17 22 26 26 26 25 27 28 27 26 29 30
56 46 52 49 57 62 69 71 72 77 67 56 49 38 30 27 26 24 25 28 27 26 21 20 26 30 26 32 28 19 16 15 15 18 20 21 25 27 27 28 27 28 26 24 26
65 62 63 51 57 55 75 73 60 64 72 72 63 51 40 33 28 26 26 30 29 27 25 23 24 27 32 30 28 26 24 20 19 16 17 19 21 22 24 31 31 27 24 23 25
75 79 78 58 62 64 53 74 71 66 69 70 80 82 66 52 51 41 36 30 28 38 36 26 33 30 31 37 36 32 26 26 24 22 21 20 16 20 24 26 27 29 30 24 22

GFSSW_prec_cthk_021.txt.gz
RH
10 10 10 9 9 9 10 9 8 8 7 6 5 5 5 4 4 5 4 6 14 17 23 27 31 33 43 61 63 67 75 72 58 52 49 53 50 48 58 50 54 51 49 44 48
9 10 10 10 9 9 9 9 10 9 8 8 7 6 5 5 4 4 3 4 9 16 22 25 31 38 44 48 63 63 63 59 53 51 49 49 50 45 49 49 51 54 61 50 46
8 9 9 9 9 9 9 9 9 9 10 9 8 7 6 5 4 4 7 4 7 13 19 22 26 33 40 44 45 56 51 47 50 50 50 47 47 43 37 46 44 39 49 50 47
8 8 8 8 9 9 9 8 9 9 9 9 9 8 6 6 7 12 9 6 6 9 15 20 24 30 35 37 42 49 44 39 45 43 45 43 44 49 43 41 47 43 45 43 47
9 9 8 8 8 8 8 9 9 9 9 9 9 8 7 7 5 7 8 7 6 6 10 17 22 28 35 32 36 41 39 34 37 42 41 37 47 52 47 40 40 45 40 45 44
13 10 9 9 8 7 7 8 8 9 9 9 8 8 7 8 6 5 6 6 7 6 7 13 21 27 34 33 33 33 34 31 32 39 39 40 44 49 51 43 38 38 36 38 41
19 16 13 11 9 9 8 7 7 8 8 8 9 8 7 6 7 8 8 7 7 6 6 10 19 27 32 34 31 31 33 32 31 30 38 44 55 54 53 40 37 38 33 35 38
21 20 18 15 12 10 9 8 7 7 7 8 8 8 6 6 7 8 8 9 7 6 8 9 15 25 29 31 30 29 29 30 30 33 35 41 54 53 51 39 37 37 31 34 38
25 22 20 19 17 13 10 9 8 7 7 7 8 9 10 8 6 6 7 8 9 11 10 10 15 20 27 29 28 26 24 26 30 33 36 36 42 44 46 41 35 34 32 32 36
29 26 23 21 19 17 13 10 10 11 12 11 12 15 8 8 8 7 7 9 9 10 10 12 14 19 21 25 26 22 21 23 29 33 37 41 39 39 43 40 34 33 31 29 31
32 30 28 25 22 19 16 13 13 15 18 16 15 11 9 11 12 11 8 9 9 8 10 9 13 14 17 19 23 23 21 25 27 31 41 42 43 43 42 38 30 30 31 29 27
33 32 31 29 27 23 21 18 16 17 13 11 9 11 10 13 15 12 12 9 8 9 11 11 11 11 14 18 21 24 20 25 29 34 40 44 43 42 41 31 36 32 33 27 27
31 30 31 31 29 27 23 23 21 18 15 12 11 9 8 12 13 14 12 11 10 10 12 11 11 10 11 15 19 22 21 24 30 38 39 49 48 47 42 42 45 38 39 33 25
29 29 30 31 31 28 24 25 23 18 18 13 12 11 10 10 13 14 13 12 13 12 12 12 10 11 9 10 14 19 21 24 29 34 41 45 54 53 46 47 50 45 42 35 30
29 28 28 28 33 32 26 27 22 21 26 14 12 10 10 9 11 12 13 14 13 12 11 10 12 11 12 8 10 12 22 23 28 29 35 38 48 50 45 50 47 48 46 40 35
25 26 27 27 30 33 31 29 26 26 26 17 13 12 11 11 11 11 13 12 13 13 14 9 11 11 11 11 8 9 16 21 26 28 33 35 43 47 49 47 46 45 47 45 44
22 22 24 26 28 33 34 32 29 27 20 17 17 15 13 12 12 12 12 13 12 13 13 13 11 11 11 11 11 9 12 19 26 29 31 30 36 36 39 41 39 39 47 47 49
19 16 17 19 23 30 35 34 34 23 22 21 21 20 18 16 14 13 13 14 13 12 12 13 15 11 10 11 10 10 10 14 23 23 26 26 32 29 27 30 36 40 44 46 50
15 12 10 14 18 26 36 38 28 27 27 26 23 21 19 20 19 17 14 17 15 13 13 13 12 12 11 11 11 11 10 10 15 18 25 21 24 24 26 26 35 40 41 45 41
19 16 7 19 23 26 31 34 31 31 29 32 32 25 23 22 24 22 19 15 17 16 13 12 17 12 14 14 12 12 10 13 12 16 19 16 23 22 25 25 29 36 39 37 41
23 24 10 21 27 31 30 30 30 34 38 40 37 33 29 26 25 24 21 20 19 20 19 16 15 15 16 17 15 13 11 12 12 12 16 21 16 18 24 27 31 33 30 31 37
30 32 14 27 33 35 34 32 31 29 31 41 42 40 37 33 29 26 22 20 23 22 22 20 18 16 16 17 18 15 13 13 14 15 17 16 14 16 21 26 29 27 27 30 32
39 32 13 30 38 37 34 31 32 29 31 33 37 44 43 38 37 30 25 22 23 24 23 23 22 22 16 18 18 19 18 15 13 13 15 20 12 10 19 28 34 36 39 37 35
57 46 28 38 45 49 42 43 45 41 45 46 46 48 52 47 42 35 31 26 25 23 24 28 24 21 20 16 21 22 21 21 18 15 11 11 11 10 18 22 24 36 40 35 39
79 65 64 53 51 67 75 78 60 47 46 51 52 66 69 69 65 49 43 39 31 28 26 25 28 24 21 21 19 21 26 24 21 15 16 12 11 11 14 22 27 28 30 31 34
93 86 74 65 61 62 67 68 62 64 63 54 64 69 74 88 88 75 61 53 48 36 36 31 31 27 26 24 22 19 23 25 24 22 19 17 13 11 13 18 24 25 27 29 34
96 96 97 86 76 69 60 75 82 83 73 76 72 65 79 81 83 78 66 55 50 46 42 37 36 33 30 27 29 26 20 26 27 24 22 20 14 14 13 16 20 32 34 32 32

GFSSW_prec_cthk_024.txt.gz
RH
9 10 10 10 9 9 8 8 9 9 8 8 7 6 5 5 4 4 4 6 11 21 28 34 37 38 47 58 69 64 62 60 54 50 54 61 57 57 52 49 54 52 44 46 47
8 8 8 9 9 9 9 8 8 9 9 9 8 7 6 5 4 4 3 3 7 15 23 30 33 34 43 55 70 63 62 58 52 50 54 54 56 52 54 44 42 53 59 47 47
9 8 8 7 8 8 8 9 8 8 8 9 9 8 7 6 5 5 6 4 4 11 21 27 28 34 37 50 61 57 55 54 53 56 52 53 57 52 56 43 39 37 43 45 42
11 10 9 8 7 7 7 8 8 8 8 8 8 9 8 7 6 9 9 6 4 8 18 24 27 31 31 39 50 49 50 51 51 53 52 53 54 52 50 37 40 39 34 38 40
16 14 12 10 9 8 7 7 7 8 8 8 8 8 8 7 6 7 9 8 7 8 13 20 26 28 31 35 41 39 41 46 54 50 51 51 52 50 55 46 44 42 37 37 40
22 18 17 15 12 10 9 8 7 7 7 8 8 8 7 7 6 6 5 7 8 7 9 13 21 26 34 36 36 38 38 42 46 42 49 46 50 48 51 48 47 44 37 33 37
26 24 21 19 17 14 11 9 8 7 6 6 7 7 7 7 7 7 7 7 7 7 7 11 17 24 32 34 35 35 33 32 34 33 42 47 48 49 50 55 45 42 41 29 34
26 25 24 22 20 18 16 12 9 8 7 6 6 6 6 6 7 6 6 7 7 8 7 9 13 20 29 33 33 31 29 28 31 36 43 40 47 47 42 52 50 43 43 31 31
29 27 24 24 22 20 18 15 11 9 9 8 7 7 7 6 6 6 6 7 7 8 8 8 12 16 24 30 33 31 29 27 29 34 43 44 48 48 44 44 52 51 41 31 28
30 29 27 26 24 22 20 16 14 14 14 14 14 13 7 6 9 8 6 7 8 9 12 11 13 15 20 24 28 29 28 25 27 32 38 42 45 46 50 49 49 45 38 29 21
28 28 28 28 27 26 24 19 17 16 16 14 15 11 10 11 11 10 7 8 9 10 11 11 14 15 17 20 24 31 31 26 28 29 36 42 43 44 50 52 50 44 35 30 22
28 27 27 27 28 28 25 24 23 22 18 15 13 12 10 10 13 12 11 9 9 9 9 10 11 12 15 18 21 28 29 26 25 25 34 43 41 43 47 48 44 42 40 31 30
26 26 27 27 28 29 27 26 24 21 19 15 16 13 12 10 11 12 13 11 10 10 8 9 9 9 12 16 18 21 26 25 26 27 37 46 46 47 48 51 47 44 38 35 32
22 23 24 25 28 29 27 27 25 22 21 16 14 12 12 12 10 12 14 12 12 10 8 9 9 10 10 13 16 18 21 25 28 30 41 47 52 50 48 50 46 45 44 41 34
16 17 19 22 25 28 30 28 26 25 29 16 14 13 12 11 11 12 14 14 13 11 12 11 10 10 11 11 12 12 20 28 29 30 35 36 50 41 43 45 47 44 43 44 41
15 13 14 15 18 24 30 31 29 29 30 19 16 14 13 12 12 12 15 15 15 15 14 11 12 12 10 10 11 10 14 23 29 31 36 31 36 38 41 42 40 43 44 42 43
16 12 10 11 11 18 25 30 31 32 22 20 21 17 15 15 14 13 17 18 17 18 17 15 13 11 12 13 11 11 11 17 25 31 29 30 36 30 33 37 36 40 39 40 43
16 13 9 8 9 13 22 29 33 26 26 24 24 21 18 16 15 14 14 19 17 16 16 19 17 13 10 11 11 12 11 13 20 27 30 28 34 24 27 31 35 37 39 41 44
17 12 8 14 19 18 23 34 29 30 30 31 28 26 24 21 20 18 15 15 17 17 16 18 16 11 12 11 11 12 12 10 12 16 23 22 25 21 23 32 31 35 41 40 42
22 16 7 22 24 27 30 31 27 28 34 36 35 31 34 30 28 25 21 16 15 15 16 16 17 12 10 13 14 13 12 13 12 12 14 15 20 20 20 22 27 29 34 39 41
28 28 7 17 24 32 39 31 24 21 35 39 41 40 36 37 33 32 27 20 19 17 18 17 18 15 12 14 14 14 14 13 12 12 12 15 10 11 14 21 25 28 28 31 34
41 41 13 21 32 39 39 31 29 28 23 38 41 40 39 39 33 32 31 28 23 23 23 21 20 17 14 11 13 15 15 14 14 14 13 10 8 8 9 19 25 26 29 33 33
51 44 24 36 43 50 52 51 45 42 42 37 42 46 49 50 47 36 35 32 36 33 29 28 20 20 19 16 16 18 15 13 14 14 12 15 11 8 9 15 24 29 29 37 39
71 65 43 42 59 56 61 66 62 55 52 49 45 47 55 56 54 55 49 43 43 42 37 30 27 22 19 17 14 17 16 16 16 15 13 11 11 9 9 13 21 24 22 28 37
83 83 76 66 63 72 71 66 69 71 60 56 56 55 58 62 66 59 59 56 49 47 42 41 36 25 21 20 20 15 17 17 16 14 15 12 12 11 9 12 19 21 25 26 32
90 96 86 78 77 73 78 83 81 78 75 62 61 55 56 59 60 68 66 60 58 52 51 46 42 35 28 22 20 20 18 18 17 17 16 16 15 14 11 9 16 19 24 35 29
90 91 91 86 85 82 75 79 84 88 89 84 76 72 59 51 48 52 63 61 59 59 56 54 48 44 38 27 24 27 17 19 20 21 18 19 19 17 14 11 12 17 22 26 33

GFSSW_prec_cthk_027.txt.gz
RH
8 8 8 8 9 9 9 9 8 8 9 9 9 8 7 6 5 5 4 5 11 21 27 29 33 38 55 64 71 67 70 66 58 55 52 56 61 59 51 44 44 47 45 49 49
10 9 9 8 7 7 8 9 9 8 8 8 9 9 8 7 6 5 4 4 6 14 22 31 34 41 56 59 70 72 68 58 54 52 51 56 57 61 52 41 39 51 45 43 44
15 13 11 10 9 8 7 7 8 8 8 8 8 9 9 8 7 6 6 5 4 7 19 27 35 37 44 55 60 63 60 54 54 54 57 56 58 60 62 55 38 36 41 45 44
22 19 16 14 12 10 9 8 7 7 8 8 8 8 8 8 8 9 8 6 4 5 15 25 32 36 36 52 52 57 53 52 49 53 60 61 57 55 59 55 36 31 32 36 38
26 24 22 19 16 14 12 10 8 7 7 7 8 8 8 8 8 8 8 8 4 4 10 19 24 30 30 43 49 53 49 47 47 57 58 59 60 55 53 53 43 37 36 32 36
28 26 24 23 21 18 16 13 10 9 8 7 6 7 7 7 8 7 7 9 7 5 9 16 21 24 31 35 39 40 42 41 38 39 45 54 57 61 58 59 59 41 39 30 34
28 26 25 24 22 21 19 16 14 11 8 7 6 6 6 7 8 8 7 8 9 8 8 12 19 23 25 30 36 35 35 34 33 32 33 40 53 51 53 54 57 42 42 32 35
28 26 25 23 22 22 21 19 17 14 10 8 7 7 6 6 7 7 8 6 7 8 8 9 15 20 25 28 33 34 31 33 34 31 28 35 49 50 50 53 56 57 48 36 32
28 27 26 24 23 22 22 21 17 15 14 12 10 9 7 6 6 6 7 7 8 8 8 10 14 17 22 27 33 32 32 33 31 30 36 36 46 51 53 54 56 54 47 42 30
27 27 27 26 24 24 25 21 19 19 18 18 17 16 9 8 10 9 7 7 8 9 10 12 14 16 18 25 29 31 31 32 32 29 37 41 45 51 53 54 55 48 41 43 30
24 24 25 25 25 25 25 23 21 20 20 18 18 15 12 11 10 11 9 8 10 10 12 11 15 16 15 19 26 29 31 33 32 29 28 36 42 51 52 54 56 52 42 39 32
19 20 21 21 24 27 26 26 27 26 23 20 18 16 14 13 13 13 11 9 10 11 12 13 14 12 14 16 23 28 30 32 31 30 30 33 38 46 54 51 50 46 47 38 33
13 14 16 16 19 25 28 27 26 25 23 17 18 17 17 15 14 13 13 10 10 11 10 13 11 11 12 14 18 22 26 31 30 32 33 34 40 44 51 55 54 48 46 43 36
10 10 12 12 15 18 26 26 27 25 24 18 17 15 15 16 16 13 14 12 12 11 10 11 10 10 11 13 15 19 21 31 30 32 32 35 49 44 51 52 50 50 51 48 40
9 9 10 10 11 12 21 26 27 26 32 19 16 15 14 14 14 16 14 16 14 13 12 11 8 10 11 9 12 13 20 29 30 31 31 31 41 44 48 52 48 44 49 49 50
12 10 9 9 9 10 14 23 26 29 30 21 17 15 15 14 13 14 14 18 16 16 15 12 10 9 9 10 10 11 16 23 32 33 34 26 33 32 44 43 41 41 46 44 46
14 11 9 10 9 8 10 20 26 30 22 23 22 20 19 15 14 15 15 19 18 19 17 16 14 13 12 12 12 12 15 24 29 33 25 26 31 24 35 35 34 35 41 41 43
16 12 9 18 16 11 10 21 26 22 24 25 25 23 21 20 16 16 18 19 19 18 18 21 21 14 13 13 13 13 13 20 22 26 23 24 27 19 25 29 33 37 37 40 41
16 10 10 20 23 19 16 29 22 22 28 30 29 27 26 25 24 21 21 21 21 20 19 22 20 16 14 12 13 14 15 11 14 17 21 22 18 18 22 27 31 33 34 38 40
20 13 14 18 28 28 30 29 26 26 28 31 35 35 35 32 28 27 25 21 21 25 21 19 19 16 15 15 14 13 12 14 16 18 18 15 16 17 19 23 26 29 29 31 35
24 21 23 26 22 30 42 37 26 23 29 32 35 38 38 37 34 30 29 26 26 25 26 24 21 17 16 17 15 15 14 14 14 15 14 14 11 9 13 18 24 28 27 28 30
30 34 31 31 31 45 52 51 38 29 29 35 36 37 41 44 42 36 32 33 32 31 30 28 25 21 19 16 14 14 14 16 17 14 13 10 10 8 7 9 16 21 23 23 23
39 39 41 41 54 53 58 62 58 50 43 43 42 44 49 49 48 50 45 43 39 38 41 37 33 23 18 17 18 18 15 14 14 14 14 14 12 8 8 8 10 17 22 23 23
53 55 52 62 62 64 62 67 74 68 54 51 49 50 51 57 59 58 53 51 46 42 42 38 38 31 25 21 20 19 16 15 14 15 14 12 12 9 8 8 9 10 15 23 25
67 69 75 78 79 79 73 67 77 83 83 69 56 56 58 56 64 65 63 55 49 47 45 45 47 37 32 29 25 22 18 14 15 14 15 12 12 11 9 9 9 9 15 19 21
79 79 78 79 88 92 87 76 83 81 76 80 85 69 63 61 57 65 66 65 60 52 49 50 51 46 38 29 26 24 20 15 13 14 15 14 13 12 11 10 10 9 13 15 16
81 85 84 82 92 92 92 88 76 85 85 96 82 74 70 64 56 51 59 63 63 60 56 55 56 54 49 36 33 28 17 17 16 16 16 16 13 14 14 14 13 10 9 13 15

GFSSW_prec_cthk_030.txt.gz
RH
13 11 10 9 9 8 7 8 8 9 9 9 9 9 9 8 7 5 4 5 9 15 23 28 31 40 52 63 71 68 68 61 60 61 62 59 58 55 49 44 48 48 51 54 53
21 19 16 13 11 10 9 8 7 7 8 8 8 8 9 8 8 6 6 5 5 11 21 27 34 39 53 63 71 69 69 59 50 55 58 64 59 57 55 46 41 48 43 45 45
26 24 22 19 17 14 11 9 8 7 7 8 8 8 8 8 8 7 6 5 4 7 20 26 34 39 54 63 68 68 66 57 50 50 55 63 65 64 59 51 38 39 43 42 41
28 27 25 23 22 19 17 14 10 9 8 7 7 8 7 8 9 9 8 6 4 5 13 25 35 43 51 60 59 63 58 55 47 45 52 58 62 69 62 59 41 34 29 39 39
30 28 26 25 23 22 20 18 16 12 10 8 7 7 7 7 8 9 9 8 7 4 7 18 34 39 43 49 53 57 54 55 48 47 46 52 56 59 66 63 54 39 32 32 38
29 27 26 24 23 22 21 20 18 16 14 10 8 7 6 6 8 8 7 7 7 5 6 12 27 35 32 40 44 47 49 48 44 41 43 43 47 57 62 65 62 55 50 30 35
27 26 25 24 23 22 21 21 20 18 16 14 10 8 7 6 8 8 8 8 8 4 5 8 19 26 28 32 37 41 40 41 39 35 37 37 46 50 57 64 67 61 55 39 34
27 26 26 25 24 24 23 21 21 19 17 15 12 10 8 6 6 7 8 8 9 7 7 8 14 21 26 28 31 33 34 36 35 33 30 36 42 44 52 62 68 62 58 48 30
21 21 22 23 24 24 24 24 23 21 19 18 16 13 11 8 6 7 8 8 9 9 9 11 13 17 21 27 31 31 34 33 34 32 33 35 39 43 49 56 64 56 52 44 39
18 18 18 18 19 24 25 25 25 25 23 22 22 18 13 10 10 7 8 9 8 9 12 13 13 15 19 23 23 29 32 33 32 32 33 37 40 41 50 58 60 61 53 42 42
13 15 15 15 16 22 25 26 25 24 23 24 23 19 15 12 13 11 9 9 10 10 13 13 16 15 15 17 21 28 31 33 34 33 33 35 38 48 52 57 59 57 59 42 36
8 9 11 12 12 17 23 26 28 30 27 22 21 19 19 18 15 15 13 10 10 12 13 14 14 12 12 15 18 23 28 34 34 34 32 30 36 41 47 50 54 59 54 48 37
6 7 7 7 9 12 17 23 25 27 28 21 20 20 21 20 18 15 14 12 11 12 13 13 12 12 13 13 16 19 23 31 33 34 35 34 33 37 46 49 56 58 48 47 43
7 8 7 7 7 8 11 17 20 25 26 20 19 19 18 20 19 17 17 13 13 13 13 14 12 13 13 13 13 18 19 27 33 33 36 36 37 37 41 47 48 51 47 47 45
8 8 8 9 9 7 8 13 18 23 30 20 17 16 16 18 17 19 18 17 14 13 14 14 12 13 14 11 12 13 16 22 30 34 32 33 34 29 33 48 45 48 41 44 39
10 9 11 11 10 10 8 10 20 25 32 21 18 17 18 17 16 18 20 21 17 16 14 14 12 12 10 10 10 11 13 19 26 32 33 27 31 25 33 35 44 44 42 42 42
10 10 14 17 15 13 11 13 21 27 20 23 23 22 21 19 17 18 20 21 20 21 18 16 14 12 10 12 11 12 15 23 26 29 27 26 29 20 23 27 35 39 43 43 42
10 10 12 18 20 16 13 18 26 20 22 25 26 25 23 24 21 20 20 21 22 20 20 20 21 16 13 11 11 13 14 23 25 25 24 26 22 19 19 27 33 37 39 42 42
10 10 15 18 21 20 20 25 24 24 26 28 28 29 29 26 25 23 23 22 23 21 21 23 20 17 15 13 12 14 16 12 16 18 20 22 19 18 19 22 30 33 36 38 40
16 14 18 20 19 20 30 29 27 33 33 29 32 35 35 32 29 27 27 32 29 27 24 22 23 18 17 17 16 14 13 17 19 21 21 18 15 17 17 17 24 30 31 33 34
22 23 23 23 24 28 37 45 33 38 39 38 35 35 39 40 36 32 31 37 34 32 31 29 23 19 20 21 17 17 16 16 16 18 18 19 14 11 11 13 17 24 30 30 31
34 38 34 32 35 45 47 48 51 41 42 44 42 40 39 46 44 40 40 42 39 38 42 38 31 27 22 19 19 17 16 16 18 17 16 16 12 8 7 7 11 20 27 27 26
40 44 45 45 54 57 54 55 58 58 51 49 49 50 48 45 50 52 49 46 42 42 45 40 40 31 26 23 20 21 19 17 15 16 15 16 12 8 8 8 8 11 18 25 24
53 57 56 62 66 69 67 60 61 71 68 66 61 56 51 52 52 61 57 52 45 46 44 42 45 40 37 31 30 25 19 19 18 18 16 14 12 10 9 8 8 7 9 14 20
67 69 71 74 73 77 79 72 75 69 71 85 79 65 60 57 54 56 60 58 52 49 45 46 47 43 41 37 33 29 25 22 20 18 18 15 14 12 11 11 10 9 8 9 11
79 76 77 82 80 82 81 81 80 75 75 81 97 90 73 65 59 56 56 65 64 56 51 51 50 48 44 37 33 31 26 22 21 19 19 16 16 12 11 10 10 9 9 9 8
84 84 82 87 87 90 86 82 81 79 72 87 93 95 83 73 69 58 54 51 61 64 60 56 54 53 50 42 39 32 23 22 21 19 18 16 14 14 12 11 11 10 10 10 9

GFSSW_prec_cthk_033.txt.gz
RH
24 22 19 17 13 11 10 8 7 7 8 9 8 8 8 8 7 6 5 6 8 13 21 26 32 37 52 60 69 70 65 61 59 58 57 59 56 52 42 47 51 58 60 59 59
27 26 25 23 20 17 14 11 9 8 7 8 8 8 8 8 8 7 7 6 5 9 15 26 36 39 51 59 67 63 62 54 54 53 50 56 58 54 46 43 49 50 50 55 55
29 28 27 25 24 22 19 17 14 10 9 8 7 8 8 8 8 7 7 6 4 5 12 25 34 38 48 61 65 67 59 51 48 50 51 54 60 58 54 43 39 50 46 47 47
27 26 26 25 24 23 22 20 18 16 12 10 8 7 7 8 8 8 8 7 5 4 8 27 32 38 42 57 62 66 59 54 50 49 54 56 54 61 57 48 40 37 43 45 43
27 25 25 24 24 23 22 21 19 18 17 14 10 9 8 6 7 9 9 7 7 5 9 22 32 37 38 53 59 59 56 52 47 48 51 52 50 50 57 58 50 50 38 41 42
25 24 24 23 23 22 21 20 20 20 19 17 14 11 9 7 6 7 8 8 7 10 10 17 28 38 39 46 48 48 50 47 41 41 50 47 43 44 53 61 58 55 48 35 39
19 19 18 19 20 21 21 22 21 20 20 19 17 15 11 7 6 7 8 7 7 8 10 11 18 30 35 40 43 41 39 39 38 38 41 39 42 45 50 56 62 60 57 40 37
16 16 17 17 17 17 21 22 24 23 22 20 18 16 14 9 7 7 8 8 8 10 10 9 13 29 28 31 33 35 35 38 39 38 37 37 36 41 47 54 56 59 59 52 33
11 12 14 14 15 16 19 22 25 27 25 22 20 17 16 12 9 7 8 8 9 10 9 9 15 20 23 25 27 30 31 37 37 34 33 36 35 40 45 47 59 56 54 51 43
7 7 7 9 12 13 17 21 24 26 28 27 25 22 17 14 9 7 8 9 12 11 12 13 14 15 17 21 22 26 29 35 35 32 33 34 37 45 45 46 51 55 53 47 44
7 7 6 6 6 9 14 17 22 26 26 29 28 23 19 16 17 9 9 12 12 13 12 13 14 12 14 17 21 27 29 32 36 33 34 31 35 42 46 47 47 58 58 50 43
7 7 7 6 5 7 10 15 19 22 25 23 24 24 22 19 20 17 10 11 12 12 12 14 12 10 11 15 19 23 27 28 34 33 30 30 34 36 44 45 46 53 58 50 44
8 7 6 6 6 8 8 13 15 18 22 19 21 23 24 22 21 20 16 13 12 13 12 10 10 10 11 12 15 18 21 25 31 33 29 29 30 32 38 43 46 47 56 56 45
11 9 9 7 7 7 9 12 12 17 19 15 16 19 22 24 22 20 21 16 14 13 14 12 12 12 11 11 11 13 16 23 30 32 31 29 27 33 34 38 44 50 43 47 47
11 12 11 10 12 11 11 11 12 20 17 17 17 17 18 22 22 22 21 22 16 13 15 13 13 14 13 10 12 10 13 17 24 31 33 30 30 28 34 39 40 41 35 42 46
9 10 10 12 13 13 11 10 18 19 20 18 17 17 19 19 20 22 23 22 21 18 15 13 14 14 12 12 11 11 13 15 20 25 28 27 28 24 29 32 35 35 37 40 41
9 10 11 14 14 13 13 12 22 23 17 22 22 22 21 20 18 21 24 22 21 21 20 17 15 14 14 14 13 14 14 17 19 21 20 22 28 19 25 26 29 33 32 40 39
10 11 13 14 14 12 14 14 26 23 25 27 27 25 24 24 21 21 23 25 24 21 21 21 20 15 14 14 13 14 13 14 17 14 15 19 18 18 19 23 27 31 28 34 38
13 13 17 17 15 13 16 15 25 34 36 33 28 30 29 27 26 24 23 25 26 24 22 22 19 17 15 14 14 15 16 11 11 14 14 13 13 14 16 20 24 27 32 38 37
18 18 21 20 21 21 20 27 32 43 41 36 34 35 36 34 31 27 28 33 29 30 28 24 24 19 18 17 15 14 13 15 15 16 15 12 14 11 13 15 22 28 30 34 38
25 27 29 27 28 32 33 35 36 42 44 46 44 41 41 41 38 34 37 36 34 34 32 29 25 23 21 18 18 17 17 15 13 12 12 11 9 9 10 12 15 23 28 32 35
35 36 39 37 38 42 43 43 40 41 49 48 49 48 46 47 42 43 43 43 38 40 38 36 28 25 22 21 19 18 16 16 15 18 13 11 9 8 8 8 10 16 23 28 32
49 48 49 47 54 58 58 54 51 52 60 56 57 56 54 49 51 51 52 46 44 41 43 39 36 32 27 24 21 21 20 20 17 15 17 14 11 8 8 8 7 9 15 20 26
59 60 57 58 63 67 64 65 61 61 63 79 70 60 58 54 49 59 57 54 46 46 43 41 39 34 28 26 28 26 23 22 19 19 16 14 12 10 8 9 8 8 10 17 25
68 72 72 65 67 73 73 73 73 73 68 69 90 83 69 59 52 49 60 59 53 50 46 45 44 41 37 35 32 30 27 25 23 20 19 14 14 12 11 9 9 8 9 13 17
76 80 82 79 74 79 79 79 80 78 75 71 89 98 94 83 63 59 53 63 64 56 52 48 47 43 39 36 33 32 28 26 24 22 21 18 16 15 14 13 11 9 8 8 11
78 83 87 87 83 80 80 82 81 81 80 85 96 93 89 94 75 63 55 51 61 64 59 52 47 45 40 39 36 32 26 26 25 23 21 19 16 14 13 13 12 11 10 9 9

GFSSW_prec_cthk_036.txt.gz
RH
27 26 25 24 22 19 17 13 10 9 8 8 8 8 8 7 7 8 7 8 8 13 21 31 38 48 53 66 72 71 63 57 53 55 49 48 46 44 45 50 57 63 61 60 60
27 26 26 25 23 22 21 18 16 12 10 8 7 8 8 7 7 7 7 7 6 8 19 32 40 40 55 59 65 66 63 59 54 48 49 49 48 42 44 46 50 58 60 60 57
26 25 24 24 24 23 22 20 19 17 15 11 9 8 8 8 8 7 7 6 6 5 15 27 38 40 44 54 58 61 62 56 49 49 49 50 52 52 42 44 48 53 52 56 55
24 23 23 22 22 23 22 21 20 19 17 16 12 9 8 8 9 8 8 7 6 6 12 22 36 37 41 51 56 57 56 52 49 50 50 52 53 55 49 39 37 45 48 51 52
19 18 18 17 18 20 20 20 21 20 19 18 16 13 10 10 7 8 9 8 7 9 12 18 33 37 37 52 57 56 55 48 48 48 48 48 48 50 54 47 46 35 41 47 49
15 16 16 16 16 16 17 18 20 21 20 19 18 17 14 11 7 7 8 9 8 11 12 18 25 35 37 42 53 54 55 50 45 44 45 46 45 45 49 51 50 47 34 41 44
10 11 11 12 14 15 16 17 20 22 22 21 20 19 19 13 8 7 9 11 13 13 14 17 22 32 38 39 42 48 46 44 41 41 45 42 41 41 48 53 53 52 51 33 39
6 6 7 9 10 11 14 16 19 22 24 25 24 21 20 16 11 9 11 13 17 15 16 21 22 30 32 30 35 39 38 39 38 36 41 38 42 42 46 49 53 53 52 45 33
6 6 5 5 5 7 10 13 17 21 25 26 26 27 21 17 15 10 12 13 18 18 20 23 23 26 31 27 32 33 33 38 38 36 37 39 43 43 44 47 49 53 52 48 39
7 6 6 5 5 5 6 10 14 18 25 29 31 29 22 18 17 13 12 13 19 18 20 21 18 20 27 28 26 32 31 31 39 35 35 38 41 40 46 45 48 50 54 47 46
8 8 7 6 5 5 6 10 15 21 20 26 31 26 25 21 20 14 11 18 23 18 13 13 13 12 14 19 23 28 29 30 36 35 32 33 39 40 45 47 46 45 50 52 42
10 9 9 7 6 7 8 11 14 16 16 14 19 25 28 26 23 17 13 16 16 17 13 13 11 10 12 14 17 21 23 26 36 34 31 33 36 40 41 44 43 47 46 51 53
8 7 7 8 8 10 11 14 16 16 16 10 12 17 24 26 23 21 16 16 16 16 12 10 10 11 11 12 15 17 19 26 31 34 32 31 31 34 36 39 44 44 48 50 51
8 7 7 6 12 12 16 14 14 17 17 10 11 14 17 25 24 24 19 18 18 17 15 13 12 11 12 12 11 12 16 24 27 31 31 32 32 32 35 37 37 38 40 46 42
9 7 6 7 10 15 15 15 15 20 13 15 14 14 15 19 22 22 24 20 17 17 17 14 13 13 11 9 11 9 12 18 25 28 30 31 29 31 34 32 36 39 39 41 38
9 9 8 11 14 14 13 13 18 21 16 18 15 16 16 19 21 22 24 21 21 19 17 16 15 13 11 12 11 10 11 13 17 23 26 24 27 24 29 28 33 39 34 35 39
11 11 11 10 12 11 10 16 18 18 18 26 24 21 19 18 22 22 24 24 25 23 19 18 16 16 14 14 14 12 14 14 15 17 18 20 24 19 24 26 31 33 33 31 37
14 14 16 16 15 12 12 19 20 23 34 33 30 25 23 22 21 23 25 26 26 25 23 23 19 15 14 14 14 13 14 12 16 12 14 17 18 16 20 25 27 31 32 33 36
17 20 25 22 19 18 19 18 22 48 50 37 30 31 29 28 25 23 23 26 26 26 26 23 21 17 16 14 14 15 14 10 11 12 13 13 13 14 17 20 24 27 29 28 29
21 24 29 27 25 27 25 29 40 44 44 40 37 40 43 38 32 27 24 29 28 28 30 27 26 21 20 17 15 16 13 13 12 16 15 11 12 14 13 15 19 23 28 26 23
29 32 32 33 34 34 35 32 31 38 42 46 50 48 49 46 42 36 37 35 33 34 35 31 27 26 22 18 17 16 17 15 13 11 12 13 10 10 10 13 16 18 22 26 21
41 35 34 38 44 42 44 42 39 48 53 53 50 49 51 55 52 48 49 45 39 39 37 34 31 31 23 22 19 18 17 15 14 16 12 12 11 10 8 9 14 17 22 26 28
51 45 44 42 45 47 49 49 47 55 57 67 66 59 59 57 60 58 58 47 41 41 44 41 32 34 31 26 23 19 18 17 16 13 16 14 11 11 9 8 11 18 23 26 29
63 55 53 55 56 56 56 57 58 58 58 63 83 75 61 54 62 63 59 52 46 42 41 43 37 32 29 27 26 24 20 18 18 16 15 16 14 12 10 10 9 11 17 23 28
77 69 70 64 65 64 67 61 61 62 63 61 89 96 81 58 61 64 65 59 53 48 44 42 41 39 37 36 31 26 22 20 19 18 17 16 16 15 14 11 11 11 12 20 24
88 85 80 75 75 74 70 72 66 68 69 69 85 84 87 84 84 87 71 65 61 55 50 46 47 43 39 36 32 30 27 24 22 19 19 18 18 18 17 14 11 12 11 12 19
96 95 91 84 82 77 80 75 72 69 71 74 75 78 79 87 82 70 64 70 61 60 55 51 46 44 40 36 35 35 28 26 24 22 21 20 21 20 19 17 14 12 11 10 10

GFSSW_prec_cthk_042.txt.gz
RH
20 20 19 18 18 18 19 19 20 18 17 15 11 9 7 7 8 7 6 7 11 14 19 25 32 45 56 63 60 65 79 74 65 62 62 52 53 66 56 55 62 61 63 71 70
16 16 17 17 16 16 16 17 17 18 18 16 15 12 9 7 7 7 7 7 7 11 17 25 28 47 53 57 58 63 89 82 67 63 59 60 50 43 45 52 58 56 63 66 66
11 12 12 13 14 15 15 15 16 15 16 17 17 15 13 9 8 6 7 6 6 6 13 24 29 44 51 53 57 59 70 66 60 71 62 61 50 50 44 50 55 51 57 60 62
8 9 9 10 11 12 13 13 14 15 15 16 18 17 16 12 12 14 8 7 6 6 8 22 30 36 44 50 55 58 64 63 59 55 60 66 64 57 46 56 48 51 50 55 57
6 5 6 7 8 10 10 11 12 13 15 16 17 18 18 17 10 10 8 7 7 6 6 14 29 33 37 46 55 54 59 66 66 57 51 59 61 57 56 56 46 45 49 52 52
6 6 6 5 5 6 8 9 10 10 13 16 19 20 19 19 13 11 9 7 7 8 7 8 22 32 39 38 47 50 52 57 63 50 56 49 55 42 54 51 32 34 42 46 50
6 6 6 6 6 5 5 5 7 10 11 14 19 22 22 18 16 11 12 9 9 8 8 7 15 30 36 40 43 47 56 54 61 48 49 43 59 50 64 65 42 38 36 42 49
7 6 6 5 5 5 5 5 5 7 10 12 16 22 22 22 17 14 10 10 10 9 8 11 11 22 33 38 44 43 50 51 50 51 46 40 45 53 55 58 45 45 43 37 39
7 6 6 6 6 5 5 6 8 9 11 9 16 24 24 23 21 19 15 10 13 13 11 13 14 18 29 40 44 41 44 48 52 48 48 39 39 44 57 62 51 44 46 43 36
7 6 6 5 5 7 8 9 10 11 18 15 18 22 20 23 23 22 19 14 16 17 17 18 18 18 25 35 37 44 41 48 48 43 41 42 36 45 45 61 67 46 50 49 46
5 5 5 5 6 8 10 12 10 19 16 23 25 15 19 24 23 22 22 18 18 21 23 22 23 18 18 28 33 39 39 35 42 42 42 40 37 40 44 49 66 52 65 46 48
7 6 6 5 6 8 12 12 11 13 13 10 11 15 15 19 24 23 22 20 19 22 25 27 20 18 22 26 30 35 34 32 36 38 40 38 38 35 41 47 60 52 69 47 50
8 7 6 5 7 10 13 10 9 11 14 10 7 8 8 15 16 23 22 22 23 25 26 22 18 23 23 25 24 31 32 30 33 37 45 42 37 38 40 44 51 59 48 49 48
10 9 7 6 10 14 12 8 9 10 13 8 9 9 9 9 13 18 20 27 27 24 26 24 25 22 23 23 20 28 26 32 36 33 37 33 38 35 30 39 44 47 50 52 47
13 12 11 13 12 17 11 11 8 13 19 18 18 16 14 10 13 14 20 27 26 26 31 24 22 20 23 20 18 18 21 29 37 33 35 33 34 30 31 36 43 46 39 63 49
17 17 16 16 21 17 13 12 17 24 18 41 34 29 25 17 14 21 22 21 28 29 34 29 24 19 16 17 14 14 22 26 25 31 31 30 34 33 29 31 32 42 51 44 52
17 19 23 22 22 17 15 20 22 27 23 40 44 35 30 29 23 20 28 28 21 28 35 33 30 20 15 16 14 15 16 21 22 22 23 23 30 30 29 30 33 37 42 50 52
19 20 27 28 24 20 21 26 28 23 31 44 47 43 33 35 36 28 30 33 21 24 31 26 27 24 16 15 14 13 13 14 20 20 21 20 22 19 26 27 29 33 38 42 46
22 24 32 35 28 26 29 34 28 24 23 23 36 44 49 54 47 49 33 30 28 22 28 27 24 26 21 17 17 15 13 12 15 17 18 18 18 17 22 26 28 27 33 37 42
24 28 37 41 37 39 40 36 38 34 27 24 29 40 49 56 54 62 49 31 35 24 27 26 30 24 23 22 18 16 16 14 15 19 19 16 17 16 16 23 25 28 30 33 38
28 32 38 52 45 52 53 45 41 42 28 28 30 38 46 59 72 71 62 57 46 40 34 31 32 28 27 24 20 17 19 17 14 13 18 19 15 13 16 16 22 24 27 32 39
33 41 51 53 55 55 53 55 51 48 41 42 45 44 62 77 79 88 87 82 66 49 46 39 30 31 32 26 24 21 17 18 18 18 15 17 15 15 15 17 18 22 24 27 36
32 46 68 67 64 62 61 59 52 49 55 52 60 50 56 67 77 88 92 90 75 56 56 53 38 32 37 36 28 22 20 18 22 17 18 18 16 18 16 17 20 18 24 28 32
49 69 68 68 74 76 70 59 52 54 58 67 74 50 55 72 75 88 90 84 79 66 56 55 43 41 36 32 30 27 24 21 19 20 18 19 19 20 18 18 20 17 20 27 30
80 81 76 71 71 78 76 67 66 57 64 69 63 60 80 66 78 83 83 79 83 72 56 56 50 45 39 36 34 27 24 22 19 21 20 20 19 24 20 18 20 19 23 28 33
83 83 78 81 84 82 80 88 76 62 62 56 51 64 83 71 76 73 76 82 91 73 60 57 50 51 48 41 43 39 28 24 24 20 24 20 20 23 25 19 19 21 25 27 31
81 82 82 81 82 89 86 83 73 67 70 65 73 64 60 67 68 69 69 70 82 76 65 61 61 59 50 49 45 44 36 29 26 25 23 22 22 24 26 25 21 19 22 26 27

GFSSW_prec_cthk_045.txt.gz
RH
13 14 14 14 14 14 14 14 13 13 15 16 16 15 11 8 6 6 6 7 11 14 20 24 26 36 51 65 76 79 97 93 78 73 70 73 62 63 69 53 60 62 66 71 71
9 10 11 11 12 13 13 13 13 13 13 14 15 16 14 11 7 5 6 7 7 12 16 20 27 34 52 61 71 73 81 78 68 68 71 72 70 55 50 51 61 62 66 69 64
6 7 7 8 9 10 10 11 12 12 13 13 13 15 16 15 11 5 5 6 6 7 12 17 23 32 47 58 62 61 75 68 69 72 68 64 64 65 53 54 48 52 57 62 61
6 6 6 6 6 6 7 9 10 11 12 12 13 14 16 16 13 12 8 7 6 6 9 15 22 29 43 54 59 61 67 73 68 69 70 60 61 63 57 55 47 44 48 52 57
6 6 5 5 5 5 5 5 7 9 10 11 13 15 17 17 14 12 10 8 7 6 6 11 20 26 37 48 55 58 63 67 63 62 62 56 54 62 58 63 50 42 50 49 54
6 6 5 5 4 5 5 5 5 5 8 10 11 15 18 20 15 13 10 8 7 7 6 5 17 26 34 40 48 51 56 64 63 55 56 54 50 55 59 65 42 36 41 47 47
7 6 6 6 5 5 5 6 7 7 7 8 10 13 19 18 17 15 13 10 8 7 7 5 10 26 32 37 44 49 56 67 63 64 66 68 54 55 57 56 52 37 35 38 40
6 6 6 6 5 6 7 9 9 8 9 10 9 10 16 15 19 16 15 14 10 8 8 8 7 18 29 35 38 47 52 62 57 65 61 63 57 57 59 60 59 50 41 33 37
6 5 5 5 5 6 8 8 7 8 10 13 13 15 12 15 19 20 16 15 13 11 9 9 9 14 24 33 37 40 48 48 55 54 55 54 51 57 57 61 58 53 49 41 34
7 6 6 5 4 6 9 9 7 12 14 18 20 20 9 9 21 23 19 16 13 14 13 10 12 15 17 27 31 38 43 44 47 50 55 45 43 50 58 57 60 62 59 59 48
8 7 6 5 4 6 8 8 7 10 10 9 10 19 16 18 17 23 25 22 16 18 17 15 17 15 11 19 25 36 38 40 40 51 47 40 41 51 55 64 61 60 66 64 52
11 9 8 7 6 8 12 11 8 9 8 6 6 7 9 21 18 16 24 26 20 18 19 21 18 13 14 17 23 32 40 42 39 41 50 48 42 43 54 54 56 66 68 74 62
11 11 10 10 8 10 12 9 8 9 10 10 9 8 7 12 17 16 19 26 24 23 21 21 16 17 19 17 22 27 34 37 35 34 42 45 43 42 49 55 60 62 61 70 59
10 9 10 11 11 12 12 9 10 12 20 22 17 16 16 10 12 18 18 20 28 25 26 24 22 25 22 21 21 26 26 30 33 40 45 46 50 45 43 50 55 66 60 51 62
11 11 12 12 13 15 13 13 15 18 24 31 28 27 21 14 9 10 22 19 21 27 30 24 25 26 27 19 22 26 23 27 32 42 45 44 45 37 37 44 52 49 54 54 53
12 13 12 13 15 15 15 18 19 24 25 21 30 31 29 22 20 23 21 28 20 28 33 30 33 30 24 23 25 29 27 28 35 44 47 43 47 42 40 36 42 43 50 51 52
11 13 14 16 15 16 19 22 27 26 17 17 24 35 38 34 31 35 33 34 27 29 37 36 32 35 28 28 28 30 31 31 35 41 43 38 39 39 35 33 34 39 45 49 49
11 16 18 20 22 23 23 31 40 32 25 19 17 18 39 41 41 43 39 37 33 26 36 37 35 33 33 27 27 22 22 22 28 32 29 33 31 30 31 33 34 36 43 48 47
10 17 23 27 29 35 34 43 46 39 33 26 19 15 16 38 49 54 49 45 37 41 32 37 32 39 34 25 22 21 19 19 22 22 25 24 23 24 24 28 31 34 41 42 45
11 23 28 33 42 40 44 52 58 53 45 36 30 25 24 30 49 59 65 58 57 65 58 33 39 40 37 33 22 19 20 19 19 23 23 18 17 14 15 23 28 29 33 39 43
15 35 41 47 44 43 49 53 59 57 50 48 37 32 30 34 46 62 67 70 81 77 68 51 39 30 36 36 25 19 21 19 16 20 25 26 18 15 15 15 18 24 29 36 42
27 49 52 49 46 46 55 57 61 59 53 53 47 41 37 38 40 57 67 76 85 91 74 64 49 35 32 28 27 25 20 20 18 18 17 18 17 19 19 16 15 21 24 29 38
42 60 55 43 48 55 62 63 63 58 52 49 48 49 47 54 55 72 85 82 86 92 80 74 55 46 34 34 34 30 23 20 21 20 19 17 19 18 18 16 16 17 22 28 37
54 59 58 57 59 65 69 68 64 63 70 59 53 53 66 58 62 86 78 86 87 88 87 83 56 53 44 31 32 32 28 23 22 22 18 15 19 21 21 18 18 19 21 22 30
58 65 73 72 66 71 76 74 77 75 78 69 65 69 77 67 64 78 83 81 79 85 87 79 54 49 44 37 35 35 31 28 23 21 23 16 21 22 23 21 21 19 19 22 28
59 69 77 84 81 77 79 82 83 81 75 60 63 64 64 65 72 82 74 77 83 85 90 75 65 56 48 39 39 42 38 29 25 21 21 20 18 22 22 23 24 24 23 24 30
63 73 82 88 90 87 87 92 92 86 77 71 60 57 60 69 71 63 65 66 69 79 87 77 66 60 50 44 49 50 39 31 28 24 21 20 20 27 26 24 22 23 22 24 28

GFSSW_prec_cthk_048.txt.gz
RH
8 8 8 9 10 10 11 11 11 10 11 12 12 14 14 13 9 6 6 8 12 14 19 20 27 38 49 62 76 81 82 78 86 86 90 86 76 73 68 59 62 63 65 66 71
6 6 7 7 7 7 8 9 10 10 10 11 12 12 14 14 12 8 5 6 7 12 16 21 25 36 53 58 71 78 86 80 76 71 76 77 74 57 56 57 62 62 60 66 67
6 6 5 6 6 6 6 6 7 9 10 10 10 12 12 15 14 10 6 5 6 7 13 19 22 28 43 55 71 72 74 71 70 72 74 69 67 66 55 54 48 52 57 61 58
6 6 6 5 5 5 5 6 6 7 8 9 10 10 12 14 17 11 9 6 5 6 9 16 20 26 38 55 60 64 66 68 69 70 66 64 62 69 61 51 41 41 49 51 52
6 6 5 5 5 4 5 6 7 8 8 7 10 10 12 15 16 15 12 9 6 6 7 10 18 23 34 45 58 61 62 66 70 65 56 57 60 70 64 59 50 46 49 49 50
6 5 5 5 5 5 6 7 8 8 8 8 8 9 13 18 16 16 15 11 9 7 7 7 12 24 30 41 52 55 61 62 69 65 60 57 56 63 66 60 47 39 45 47 49
7 6 6 6 5 5 6 8 7 7 7 7 9 10 13 11 15 18 17 14 10 8 7 7 6 20 29 38 48 54 55 60 68 66 64 61 56 63 70 63 58 45 36 43 46
8 7 7 6 5 5 6 7 6 7 10 10 12 16 11 5 11 16 20 16 15 10 8 8 6 14 27 32 41 50 52 50 57 68 68 67 62 60 66 64 65 54 45 36 39
10 9 7 6 6 5 7 8 6 7 10 7 14 17 11 7 9 14 19 21 17 14 11 10 9 10 24 31 37 46 46 45 53 57 61 69 62 54 62 64 64 54 50 45 36
9 9 9 7 7 6 7 8 5 5 11 9 17 19 9 11 16 15 21 23 22 17 16 13 12 11 18 28 30 40 44 46 50 50 60 65 58 56 60 62 64 60 56 53 48
8 8 7 9 8 8 8 7 6 6 8 10 9 9 7 12 15 18 18 24 26 21 17 15 14 13 11 19 24 33 39 42 44 47 62 56 58 57 58 61 61 60 59 57 49
7 8 7 7 9 10 11 10 10 11 9 13 12 12 9 12 14 19 21 20 24 25 21 20 16 10 12 16 20 29 35 38 38 43 55 54 55 61 64 55 54 58 64 60 54
8 9 8 7 8 9 10 9 10 11 11 15 16 16 12 12 12 20 25 21 20 25 25 23 18 16 14 15 18 23 32 31 34 43 48 53 57 64 68 63 58 57 56 55 52
8 8 8 6 8 8 8 9 13 13 16 19 17 18 17 15 12 24 25 28 26 23 27 28 23 24 18 15 15 20 23 29 30 47 58 49 52 55 61 60 59 53 52 54 56
9 8 8 8 9 10 8 11 13 15 16 16 14 19 21 19 17 18 28 27 28 27 26 24 27 25 25 16 15 14 22 32 32 46 50 51 51 47 57 67 54 50 49 49 55
8 7 9 11 13 15 12 12 15 21 25 18 15 15 20 26 25 20 29 29 30 31 28 28 29 30 24 27 22 18 19 33 36 46 53 48 52 47 59 57 53 46 44 45 51
9 8 12 16 18 20 18 18 24 25 20 21 19 17 17 31 36 26 33 38 48 49 28 29 32 32 36 34 34 29 29 35 46 53 52 44 50 42 50 51 46 48 46 44 45
10 14 18 20 24 25 26 27 33 30 27 27 26 24 22 20 34 36 38 46 53 58 57 27 33 32 35 39 38 33 34 40 47 47 45 32 43 34 37 42 46 47 43 45 44
12 21 25 30 32 33 31 36 38 37 32 32 28 31 30 24 23 44 45 59 67 73 78 66 26 34 38 37 40 36 34 33 35 30 37 31 32 31 37 34 40 45 50 50 47
13 23 37 37 38 37 35 41 43 46 41 36 41 39 40 35 29 27 44 59 67 78 83 75 59 35 36 42 41 32 32 33 33 35 28 27 26 28 29 28 31 36 40 40 45
16 36 44 41 39 42 47 49 51 47 43 48 50 54 53 49 38 29 34 45 66 78 85 79 67 37 47 43 35 38 34 31 29 30 26 26 20 19 22 26 28 32 34 33 41
21 48 47 42 42 54 59 60 58 56 53 53 57 62 62 52 48 38 39 52 60 77 85 88 78 70 48 34 36 42 34 32 27 24 24 22 15 16 16 16 23 25 34 31 32
29 50 52 47 62 60 60 62 67 68 68 65 66 58 50 44 49 50 40 39 62 73 91 96 91 76 46 43 43 42 38 26 23 22 21 18 11 15 17 19 19 18 24 29 31
37 56 55 58 69 72 75 70 70 77 76 73 64 62 52 47 49 53 48 48 60 76 86 95 94 82 74 52 53 38 32 33 24 24 20 15 14 18 18 18 18 18 18 25 27
46 59 66 73 77 84 85 78 76 76 76 80 75 68 65 60 56 55 49 47 52 81 90 96 91 77 65 55 51 44 36 30 28 22 21 14 16 19 19 19 20 17 17 26 30
52 62 70 80 88 91 87 88 91 87 88 81 82 77 67 81 69 57 59 57 66 85 96 96 95 73 58 49 46 43 38 34 30 23 22 18 18 18 20 25 22 21 19 23 27
62 70 77 83 92 98 92 95 92 92 88 85 83 80 68 61 62 54 55 57 72 85 94 97 91 77 66 55 49 49 46 41 33 28 24 21 17 22 27 33 29 23 23 24 27